Location: Brunsbüttel
(52.3892°N, 10.6138°E)
Time: 10:17:55
(UTC+00:00)

GP-B - Pass Details

Date: 19 May 2025
Orbit: 619 x 624 km, 89.8° (Epoch: 23 June)

Event Time Altitude Azimuth Distance (km) Brightness Sun altitude
Rises 23:08:26 0° 1° (N) 2,920 8.3 -17.6°
Reaches altitude 10° 23:10:39 10° 2° (N) 2,007 7.0 -17.6°
Maximum altitude 23:15:04 87° 89° (E) 632 3.0 -17.6°
Enters shadow 23:16:49 37° 179° (S) 981 3.5 -17.6°
